Regional Weather Roundup
Issued by NWS

Home | Current Version | Previous Version | Graphics & Text | Print | Product List | Glossary On
Versions: 1 2 3 4 5 6 7 8 9 10 11 12 13 14 15 16 17 18 19 20 21 22 23 24 25 26 27 28 29 30 31 32 33 34 35 36 37 38 39 40 41 42 43 44 45 46 47 48 49
000
ASUS45 KBOU 191607
RWRCO

WEATHER ROUNDUP FOR COLORADO
NATIONAL WEATHER SERVICE DENVER/BOULDER CO
1000 AM MDT FRI SEP 19 2014

NOTE: "FAIR" INDICATES FEW OR NO CLOUDS BELOW 12000 FEET WITH NO
SIGNIFICANT WEATHER AND/OR OBSTRUCTIONS TO VISIBILITY.

COZ001>005-013-030-031-191700-
...NORTHWEST COLORADO...

CITY           SKY/WX    TMP DP  RH WIND       PRES   REMARKS
CRAIG          SUNNY     65  44  46 VRB5      30.17S
HAYDEN         SUNNY     63  37  39 E3        30.18S
MEEKER         MOSUNNY   64  43  46 VRB3      30.17
MOUNT WERNER   NOT AVBL
STEAMBOAT SPGS SUNNY     60  43  53 CALM      30.20S
WALDEN         MOSUNNY   59  37  44 CALM      30.27R
$$

COZ006>008-011-191700-
...WEST CENTRAL VALLEYS...

CITY           SKY/WX    TMP DP  RH WIND       PRES   REMARKS
GRAND JUNCTION SUNNY     73  43  33 SE12      30.05R
MONTROSE       MOSUNNY   71  43  36 CALM      30.12S
EAGLE          MOSUNNY   59  39  47 CALM      30.22S
RIFLE          SUNNY     64  43  46 CALM      30.12S
DELTA          MOSUNNY   71  44  38 CALM      30.10R
NUCLA          CLOUDY    66  45  45 W10       30.17S
$$

COZ017>023-064>068-191700-
...SOUTHWEST COLORADO...

CITY           SKY/WX    TMP DP  RH WIND       PRES   REMARKS
DURANGO        SUNNY     66  48  52 VRB5      30.19S
CORTEZ         SUNNY     69  46  43 CALM      30.13S
PAGOSA SPRINGS SUNNY     64  46  52 CALM      30.25F
TELLURIDE      NOT AVBL
WOLF CREEK PAS SUNNY     52  36  54 NE10G16   30.51S
$$

COZ009-010-012-014-032>034-037-058>063-191700-
...CENTRAL COLORADO...

CITY           SKY/WX    TMP DP  RH WIND       PRES   REMARKS
ASPEN          SUNNY     64  38  38 CALM      30.24R
BUENA VISTA    SUNNY     64  32  30 CALM      30.25S
COPPER MTN     NOT AVBL
BERTHOUD PASS  FAIR      46  45  93 N7G20     30.57S
COTTONWOOD PAS SUNNY     64  28  25 SE5       30.37S
GUNNISON       SUNNY     55  34  44 CALM      30.30S
KREMMLING      SUNNY     57  34  41 CALM      30.26F
LEADVILLE      SUNNY     60  32  34 VRB6      30.37S
MONARCH PASS   SUNNY     50  32  50 W8        30.62R
SALIDA         SUNNY     63  34  33 CALM      30.30S
SUNLIGHT       SUNNY     55  37  50 CALM      30.47R
WILKERSON PASS NOT AVBL
$$

COZ069>075-191700-
...SAN LUIS VALLEY/SANGRE DE CRISTO MOUNTAINS...

CITY           SKY/WX    TMP DP  RH WIND       PRES   REMARKS
ALAMOSA        SUNNY     59  45  59 CALM      30.24S
LA VETA PASS   SUNNY     55  43  62 W7        30.38R
SAGUACHE       NOT AVBL
$$

COZ035-036-038>040-191700-
...NORTHERN COLORADO FRONT RANGE...

CITY           SKY/WX    TMP DP  RH WIND       PRES   REMARKS
DENVER INTL AP MOSUNNY   74  39  28 NW9       30.03R
DMNS CITY PARK   N/A     74  42  30 N5G13     30.04R
AURORA         MOSUNNY   77  39  26 NW8       30.05R
FRONT RANGE AP MOSUNNY   77  41  27 NW9       30.04R
ERIE MUNI ARPT SUNNY     71  42  34 N7        30.04R
BOULDER MUN AP SUNNY     68  45  42 CALM      30.06R
CENTENNIAL     MOSUNNY   76  38  25 W5        30.05R
BROOMFIELD     MOSUNNY   72  41  33 N15G21    30.07R
FORT COLLINS   SUNNY     72  46  40 CALM      30.03S
LONGMONT       SUNNY     74  46  37 CALM      30.05R
$$

COZ041-046-047-076>085-087-088-191700-
...PIKES PEAK/PALMER DIVIDE AND SOUTHERN FOOTHILLS...

CITY           SKY/WX    TMP DP  RH WIND       PRES   REMARKS
COLO. SPRINGS  MOSUNNY   75  37  25 VRB3      30.09S
A. F. ACADEMY  SUNNY     73  36  26 VRB3      30.10S
ELLICOTT       NOT AVBL
FALCON         SUNNY     74  34  23 S5        30.14S
FORT CARSON    SUNNY     72  47  41 E6        30.06S
LIMON          SUNNY     72  54  53 S9        30.03S
MONUMENT HILL  SUNNY     75  34  22 NW9       30.13R
TRINIDAD       SUNNY     74  52  46 W20       30.07S
$$

COZ042>045-048>051-090-091-191700-
...NORTHEAST COLORADO...

CITY           SKY/WX    TMP DP  RH WIND       PRES   REMARKS
GREELEY ARPT   SUNNY     79  46  31 N9        30.00S
AKRON          SUNNY     74  47  38 W8        29.98F
BURLINGTON     SUNNY     77  56  48 S17G25    29.99S
WRAY           SUNNY     82  56  41 S14       29.93R
STERLING       SUNNY     77  54  44 CALM      29.95R
HOLYOKE        NOT AVBL
FORT MORGAN    SUNNY     80  42  25 N13       29.99S
$$

COZ086-089-092>099-191700-
...SOUTHEAST COLORADO...

CITY           SKY/WX    TMP DP  RH WIND       PRES   REMARKS
PUEBLO         SUNNY     66  53  63 CALM      30.01R
LA JUNTA       SUNNY     72  54  53 W5        29.98F
LAMAR          SUNNY     78  58  49 SW17      29.96S
SPRINGFIELD      N/A     74  59  59 S15G22    30.02F
$$



USA.gov is the U.S. government's official web portal to all federal, state and local government web resources and services.